Location: Callanans Corners
(42.5326°N, 73.8846°W)
Time: 13:50:49
(UTC+00:00)

Cosmos 2263 Rocket - Pass Details

Date: 06 October 2022
Orbit: 822 x 850 km, 71.0° (Epoch: 28 November)

Event Time Altitude Azimuth Distance (km) Brightness Sun altitude
Rises 23:34:23 0° 329° (NNW) 3,419 5.9 -13.0°
Reaches altitude 10° 23:36:56 10° 323° (NW) 2,481 5.2 -13.5°
Maximum altitude 23:42:17 43° 253° (WSW) 1,171 3.5 -14.5°
Drops below altitude 10° 23:47:37 10° 183° (S) 2,465 4.6 -15.4°
Sets 23:50:09 0° 177° (S) 3,395 5.2 -15.9°
